LPE0021 VNKT-VQPR

Flight info

Callsign LPE0021
Flight time 1h 10m
Altitude 33000
Route IGRIS1D KIMTI B345 TUMLI
Aircraft A20N/M-SDE2E3FGHIRWXY/LB1

Departure

Time 2026-05-09 00:26
Airport Tribhuvan International Airport (VNKT)

Arrival

Time 2026-05-09 01:36
Airport Paro International Airport (VQPR)
Time Latitude Longitude Altitude Speed Heading
2026-05-08 23:47 27.69991 85.35841 4443 ft 0 kts 291°
2026-05-09 00:13 27.69991 85.35840 4443 ft 0 kts 291°
2026-05-09 00:13 27.69991 85.35839 4443 ft 0 kts 291°
2026-05-09 00:13 27.69990 85.35841 4443 ft 2 kts 292°
2026-05-09 00:14 27.69985 85.35857 4444 ft 2 kts 291°
2026-05-09 00:14 27.69980 85.35873 4444 ft 2 kts 291°
2026-05-09 00:14 27.69967 85.35908 4443 ft 2 kts 291°
2026-05-09 00:15 27.69962 85.35921 4443 ft 0 kts 291°
2026-05-09 00:15 27.69960 85.35930 4443 ft 1 kts 251°
2026-05-09 00:15 27.69965 85.35938 4443 ft 0 kts 207°
2026-05-09 00:15 27.69972 85.35941 4443 ft 1 kts 201°
2026-05-09 00:16 27.69973 85.35941 4443 ft 0 kts 202°
2026-05-09 00:18 27.69972 85.35941 4443 ft 0 kts 202°
2026-05-09 00:18 27.69958 85.35934 4443 ft 3 kts 202°
2026-05-09 00:18 27.69921 85.35917 4441 ft 7 kts 203°
2026-05-09 00:19 27.69863 85.35889 4439 ft 11 kts 202°
2026-05-09 00:19 27.69768 85.35846 4432 ft 17 kts 202°
2026-05-09 00:19 27.69640 85.35786 4422 ft 22 kts 202°
2026-05-09 00:19 27.69479 85.35713 4410 ft 26 kts 201°
2026-05-09 00:20 27.69321 85.35641 4397 ft 25 kts 203°
2026-05-09 00:20 27.69200 85.35586 4388 ft 11 kts 200°
2026-05-09 00:20 27.69122 85.35554 4385 ft 8 kts 189°
2026-05-09 00:20 27.69109 85.35554 4384 ft 0 kts 169°
2026-05-09 00:21 27.69108 85.35554 4384 ft 0 kts 169°
2026-05-09 00:21 27.69101 85.35556 4384 ft 1 kts 162°
2026-05-09 00:21 27.69084 85.35569 4384 ft 3 kts 132°
2026-05-09 00:21 27.69070 85.35591 4384 ft 3 kts 125°
2026-05-09 00:22 27.69054 85.35613 4385 ft 3 kts 138°
2026-05-09 00:22 27.69016 85.35622 4384 ft 11 kts 188°
2026-05-09 00:22 27.68924 85.35580 4379 ft 16 kts 201°
2026-05-09 00:22 27.68805 85.35528 4374 ft 19 kts 201°
2026-05-09 00:23 27.68672 85.35468 4368 ft 21 kts 202°
2026-05-09 00:23 27.68525 85.35400 4362 ft 21 kts 201°
2026-05-09 00:23 27.68436 85.35354 4359 ft 13 kts 199°
2026-05-09 00:23 27.68341 85.35310 4357 ft 15 kts 220°
2026-05-09 00:24 27.68273 85.35221 4357 ft 14 kts 223°
2026-05-09 00:24 27.68189 85.35193 4359 ft 12 kts 155°
2026-05-09 00:24 27.68179 85.35251 4359 ft 9 kts 25°
2026-05-09 00:24 27.68243 85.35274 4357 ft 0 kts 24°
2026-05-09 00:25 27.68244 85.35274 4357 ft 0 kts 24°
2026-05-09 00:25 27.68398 85.35343 4358 ft 64 kts 21°
2026-05-09 00:25 27.69056 85.35642 4385 ft 137 kts 21°
2026-05-09 00:26 27.70078 85.36110 4791 ft 163 kts 23°
2026-05-09 00:26 27.71078 85.36638 5459 ft 164 kts 32°
2026-05-09 00:26 27.72110 85.37299 5936 ft 179 kts 25°
2026-05-09 00:26 27.73255 85.37978 6418 ft 195 kts 36°
2026-05-09 00:27 27.74112 85.39217 6896 ft 212 kts 73°
2026-05-09 00:27 27.74271 85.40910 7439 ft 228 kts 91°
2026-05-09 00:27 27.74180 85.42734 8195 ft 234 kts 95°
2026-05-09 00:27 27.73758 85.44498 8988 ft 238 kts 117°
2026-05-09 00:28 27.72767 85.45972 9733 ft 243 kts 138°
2026-05-09 00:28 27.71323 85.46971 10438 ft 248 kts 155°
2026-05-09 00:28 27.69670 85.47736 10944 ft 264 kts 158°
2026-05-09 00:28 27.67908 85.48534 11389 ft 282 kts 154°
2026-05-09 00:29 27.66180 85.49679 11820 ft 300 kts 142°
2026-05-09 00:29 27.64594 85.51347 12239 ft 317 kts 128°
2026-05-09 00:29 27.63344 85.53436 12636 ft 333 kts 115°
2026-05-09 00:29 27.62502 85.55888 13276 ft 339 kts 105°
2026-05-09 00:30 27.61832 85.58431 14029 ft 342 kts 104°
2026-05-09 00:30 27.61173 85.61011 14744 ft 346 kts 104°
2026-05-09 00:30 27.60488 85.63647 15431 ft 350 kts 104°
2026-05-09 00:30 27.59796 85.66271 16132 ft 354 kts 105°
2026-05-09 00:31 27.59048 85.68937 16800 ft 359 kts 109°
2026-05-09 00:31 27.58056 85.71525 17519 ft 363 kts 114°
2026-05-09 00:31 27.56927 85.74112 18200 ft 366 kts 115°
2026-05-09 00:31 27.55787 85.76666 18846 ft 369 kts 115°
2026-05-09 00:32 27.54636 85.79254 19548 ft 372 kts 115°
2026-05-09 00:32 27.53468 85.81894 20177 ft 376 kts 115°
2026-05-09 00:32 27.52359 85.84569 20792 ft 379 kts 110°
2026-05-09 00:32 27.51548 85.87378 21362 ft 382 kts 102°
2026-05-09 00:33 27.51072 85.90345 21981 ft 384 kts 95°
2026-05-09 00:33 27.50894 85.93331 22575 ft 386 kts 91°
2026-05-09 00:33 27.50790 85.96346 23163 ft 389 kts 91°
2026-05-09 00:33 27.50697 85.99426 23754 ft 392 kts 91°
2026-05-09 00:34 27.50598 86.02483 24291 ft 396 kts 92°
2026-05-09 00:34 27.50488 86.05603 24868 ft 398 kts 92°
2026-05-09 00:34 27.50373 86.08728 25432 ft 400 kts 92°
2026-05-09 00:34 27.50256 86.11848 25893 ft 404 kts 93°
2026-05-09 00:35 27.50132 86.15031 26321 ft 408 kts 93°
2026-05-09 00:35 27.50008 86.18209 26752 ft 412 kts 93°
2026-05-09 00:35 27.49881 86.21455 27267 ft 414 kts 94°
2026-05-09 00:35 27.49703 86.24679 27742 ft 415 kts 96°
2026-05-09 00:36 27.49358 86.27938 28153 ft 418 kts 100°
2026-05-09 00:36 27.48845 86.31155 28577 ft 420 kts 103°
2026-05-09 00:36 27.48241 86.34349 28924 ft 424 kts 104°
2026-05-09 00:36 27.47611 86.37624 29372 ft 425 kts 104°
2026-05-09 00:37 27.46990 86.40842 29823 ft 425 kts 104°
2026-05-09 00:37 27.46356 86.44120 30189 ft 428 kts 104°
2026-05-09 00:37 27.45726 86.47383 30538 ft 429 kts 104°
2026-05-09 00:37 27.45088 86.50673 30718 ft 437 kts 104°
2026-05-09 00:38 27.44434 86.54055 30897 ft 444 kts 104°
2026-05-09 00:38 27.43778 86.57456 31180 ft 448 kts 104°
2026-05-09 00:38 27.43115 86.60894 31529 ft 450 kts 104°
2026-05-09 00:38 27.42458 86.64290 31880 ft 451 kts 104°
2026-05-09 00:39 27.41782 86.67786 32197 ft 453 kts 105°
2026-05-09 00:39 27.41115 86.71241 32455 ft 457 kts 106°
2026-05-09 00:39 27.40431 86.74754 32702 ft 460 kts 106°
2026-05-09 00:39 27.39747 86.78267 32944 ft 463 kts 106°
2026-05-09 00:40 27.39058 86.81797 33184 ft 466 kts 106°
2026-05-09 00:40 27.38353 86.85407 33320 ft 471 kts 107°
2026-05-09 00:40 27.37654 86.88966 33356 ft 471 kts 106°
2026-05-09 00:41 27.35533 86.99786 33413 ft 473 kts 106°
2026-05-09 00:41 27.34119 87.06973 33439 ft 472 kts 107°
2026-05-09 00:42 27.32694 87.14201 33379 ft 473 kts 107°
2026-05-09 00:42 27.31485 87.21476 33344 ft 477 kts 101°
2026-05-09 00:43 27.30841 87.28906 33348 ft 478 kts 98°
2026-05-09 00:43 27.30257 87.36337 33385 ft 479 kts 98°
2026-05-09 00:44 27.29652 87.43793 33370 ft 480 kts 99°
2026-05-09 00:44 27.29029 87.51281 33433 ft 482 kts 99°
2026-05-09 00:45 27.28405 87.58760 33421 ft 483 kts 99°
2026-05-09 00:45 27.27776 87.66251 33367 ft 483 kts 99°
2026-05-09 00:46 27.27138 87.73765 33350 ft 483 kts 99°
2026-05-09 00:46 27.26492 87.81301 33364 ft 483 kts 99°
2026-05-09 00:47 27.25848 87.88799 33370 ft 484 kts 99°
2026-05-09 00:47 27.25197 87.96328 33417 ft 486 kts 99°
2026-05-09 00:48 27.24539 88.03893 33421 ft 486 kts 100°
2026-05-09 00:48 27.23879 88.11426 33439 ft 485 kts 100°
2026-05-09 00:49 27.23546 88.15201 33310 ft 484 kts 99°
2026-05-09 00:49 27.23212 88.18973 32562 ft 490 kts 99°
2026-05-09 00:49 27.22865 88.22797 31683 ft 498 kts 98°
2026-05-09 00:49 27.22520 88.26629 31142 ft 495 kts 98°
2026-05-09 00:50 27.22178 88.30491 30586 ft 492 kts 98°
2026-05-09 00:50 27.21837 88.34318 30064 ft 488 kts 97°
2026-05-09 00:50 27.21503 88.38048 29532 ft 485 kts 97°
2026-05-09 00:50 27.21163 88.41830 28983 ft 480 kts 97°
2026-05-09 00:51 27.20833 88.45538 28394 ft 476 kts 97°
2026-05-09 00:51 27.20504 88.49207 27909 ft 470 kts 97°
2026-05-09 00:51 27.20175 88.52856 27438 ft 463 kts 97°
2026-05-09 00:51 27.19853 88.56413 26948 ft 457 kts 97°
2026-05-09 00:52 27.19532 88.59912 26510 ft 451 kts 96°
2026-05-09 00:52 27.19214 88.63374 26075 ft 444 kts 96°
2026-05-09 00:52 27.18901 88.66814 25625 ft 437 kts 97°
2026-05-09 00:52 27.18593 88.70168 25205 ft 431 kts 97°
2026-05-09 00:53 27.18286 88.73499 24775 ft 425 kts 97°
2026-05-09 00:53 27.17985 88.76751 24364 ft 419 kts 97°
2026-05-09 00:53 27.17682 88.80002 23968 ft 413 kts 97°
2026-05-09 00:53 27.17386 88.83178 23565 ft 407 kts 96°
2026-05-09 00:54 27.17095 88.86311 23174 ft 401 kts 97°
2026-05-09 00:54 27.16807 88.89391 22792 ft 395 kts 96°
2026-05-09 00:54 27.16523 88.92423 22414 ft 389 kts 97°
2026-05-09 00:54 27.16240 88.95431 22041 ft 384 kts 96°
2026-05-09 00:55 27.15962 88.98386 21688 ft 377 kts 96°
2026-05-09 00:55 27.15688 89.01284 21340 ft 371 kts 96°
2026-05-09 00:55 27.15418 89.04148 20997 ft 365 kts 96°
2026-05-09 00:55 27.15153 89.06937 20683 ft 359 kts 96°
2026-05-09 00:56 27.14892 89.09682 20363 ft 354 kts 96°
2026-05-09 00:56 27.14632 89.12405 20048 ft 349 kts 96°
2026-05-09 00:56 27.14375 89.15103 19750 ft 343 kts 96°
2026-05-09 00:56 27.14186 89.17733 19457 ft 337 kts 88°
2026-05-09 00:57 27.14744 89.20248 19124 ft 332 kts 63°
2026-05-09 00:57 27.15892 89.22468 18838 ft 326 kts 56°
2026-05-09 00:57 27.17258 89.24482 18561 ft 321 kts 47°
2026-05-09 00:57 27.18873 89.26190 18287 ft 316 kts 38°
2026-05-09 00:58 27.20666 89.27541 18020 ft 312 kts 28°
2026-05-09 00:58 27.22638 89.28547 17738 ft 307 kts 19°
2026-05-09 00:58 27.24677 89.29159 17468 ft 303 kts 11°
2026-05-09 00:58 27.26732 89.29566 17184 ft 298 kts
2026-05-09 00:59 27.28781 89.29948 16904 ft 294 kts
2026-05-09 00:59 27.30785 89.30327 16628 ft 290 kts 10°
2026-05-09 00:59 27.32773 89.30672 16364 ft 285 kts
2026-05-09 00:59 27.34730 89.30486 16084 ft 282 kts 345°
2026-05-09 01:00 27.36531 89.29662 15815 ft 278 kts 329°
2026-05-09 01:00 27.38151 89.28487 15563 ft 274 kts 326°
2026-05-09 01:00 27.39717 89.27292 15312 ft 270 kts 326°
2026-05-09 01:00 27.41288 89.26173 15039 ft 265 kts 337°
2026-05-09 01:01 27.43046 89.25671 14763 ft 259 kts 360°
2026-05-09 01:01 27.44803 89.25919 14500 ft 252 kts 20°
2026-05-09 01:01 27.46347 89.26818 14245 ft 247 kts 40°
2026-05-09 01:01 27.47500 89.28213 14058 ft 237 kts 59°
2026-05-09 01:02 27.48140 89.29806 13971 ft 215 kts 77°
2026-05-09 01:02 27.48295 89.31422 13707 ft 203 kts 95°
2026-05-09 01:02 27.47921 89.32900 13276 ft 204 kts 121°
2026-05-09 01:02 27.46989 89.34157 12515 ft 218 kts 129°
2026-05-09 01:03 27.46089 89.35544 11824 ft 222 kts 121°
2026-05-09 01:03 27.45368 89.37041 11311 ft 216 kts 116°
2026-05-09 01:03 27.44628 89.38473 10813 ft 206 kts 130°
2026-05-09 01:03 27.43753 89.39722 10011 ft 212 kts 114°
2026-05-09 01:04 27.42933 89.41007 9418 ft 201 kts 158°
2026-05-09 01:04 27.41611 89.41589 8429 ft 216 kts 153°
2026-05-09 01:04 27.40244 89.42438 8235 ft 241 kts 150°
2026-05-09 01:04 27.38624 89.43430 8275 ft 279 kts 148°
2026-05-09 01:05 27.36909 89.44454 9093 ft 285 kts 154°
2026-05-09 01:05 27.35042 89.45486 9281 ft 317 kts 152°
2026-05-09 01:05 27.30804 89.48027 10402 ft 349 kts 152°
2026-05-09 01:06 27.28864 89.49094 12818 ft 312 kts 154°
2026-05-09 01:06 27.26886 89.50033 13911 ft 313 kts 160°
2026-05-09 01:06 27.24779 89.50550 15063 ft 307 kts 173°
2026-05-09 01:06 27.22689 89.50676 16181 ft 301 kts 180°
2026-05-09 01:07 27.20651 89.50492 17224 ft 296 kts 189°
2026-05-09 01:07 27.18653 89.50000 18217 ft 291 kts 196°
2026-05-09 01:07 27.16691 89.49491 18397 ft 290 kts 189°
2026-05-09 01:07 27.14690 89.49175 18209 ft 282 kts 187°
2026-05-09 01:08 27.12801 89.48924 18142 ft 270 kts 186°
2026-05-09 01:08 27.10977 89.48691 18103 ft 256 kts 186°
2026-05-09 01:08 27.09213 89.48431 18092 ft 252 kts 195°
2026-05-09 01:08 27.07717 89.47479 18055 ft 249 kts 233°
2026-05-09 01:09 27.07046 89.45746 18010 ft 247 kts 269°
2026-05-09 01:09 27.07429 89.43889 17983 ft 246 kts 301°
2026-05-09 01:09 27.08563 89.42490 17956 ft 246 kts 328°
2026-05-09 01:09 27.10170 89.41839 17984 ft 247 kts 357°
2026-05-09 01:10 27.11857 89.42054 17931 ft 240 kts
2026-05-09 01:10 27.13497 89.42168 17755 ft 233 kts 349°
2026-05-09 01:10 27.15001 89.41595 17461 ft 231 kts 332°
2026-05-09 01:10 27.16438 89.40760 17005 ft 232 kts 332°
2026-05-09 01:11 27.17857 89.39870 16426 ft 238 kts 327°
2026-05-09 01:11 27.19252 89.38844 15845 ft 243 kts 327°
2026-05-09 01:11 27.20694 89.37814 15192 ft 249 kts 328°
2026-05-09 01:11 27.22111 89.36700 14570 ft 251 kts 323°
2026-05-09 01:12 27.23501 89.35553 14033 ft 246 kts 327°
2026-05-09 01:12 27.24941 89.34575 13550 ft 240 kts 333°
2026-05-09 01:12 27.26401 89.33731 13166 ft 228 kts 336°
2026-05-09 01:12 27.27799 89.33064 13144 ft 218 kts 340°
2026-05-09 01:13 27.29184 89.32495 13334 ft 194 kts 341°
2026-05-09 01:13 27.30364 89.31953 13216 ft 174 kts 337°
2026-05-09 01:13 27.31442 89.31406 12884 ft 167 kts 338°
2026-05-09 01:13 27.32519 89.30887 12543 ft 180 kts 341°
2026-05-09 01:14 27.33763 89.30351 12674 ft 201 kts 340°
2026-05-09 01:14 27.34992 89.29882 12822 ft 174 kts 340°
2026-05-09 01:14 27.36053 89.29323 12670 ft 163 kts 334°
2026-05-09 01:14 27.37153 89.28687 12588 ft 192 kts 335°
2026-05-09 01:15 27.38332 89.28101 12725 ft 175 kts 339°
2026-05-09 01:15 27.39511 89.27570 12856 ft 191 kts 341°
2026-05-09 01:15 27.40789 89.27070 13221 ft 188 kts 345°
2026-05-09 01:15 27.41957 89.26731 13308 ft 160 kts 347°
2026-05-09 01:16 27.43051 89.26412 13177 ft 176 kts 349°
2026-05-09 01:16 27.44347 89.26245 13365 ft 195 kts
2026-05-09 01:16 27.45580 89.26593 13576 ft 169 kts 31°
2026-05-09 01:17 27.47250 89.28383 12804 ft 174 kts 52°
2026-05-09 01:17 27.47900 89.29542 12306 ft 178 kts 71°
2026-05-09 01:17 27.48218 89.30917 11703 ft 188 kts 84°
2026-05-09 01:17 27.48110 89.32387 11143 ft 194 kts 104°
2026-05-09 01:18 27.47581 89.33746 10698 ft 192 kts 128°
2026-05-09 01:18 27.46571 89.34738 10208 ft 193 kts 139°
2026-05-09 01:18 27.45608 89.35767 9812 ft 189 kts 130°
2026-05-09 01:18 27.44885 89.36960 9431 ft 184 kts 124°
2026-05-09 01:19 27.44095 89.38052 9120 ft 176 kts 127°
2026-05-09 01:19 27.43414 89.39164 8811 ft 169 kts 120°
2026-05-09 01:19 27.42823 89.40280 8519 ft 163 kts 123°
2026-05-09 01:19 27.42083 89.41318 8211 ft 173 kts 136°
2026-05-09 01:20 27.41030 89.41969 7626 ft 179 kts 153°
2026-05-09 01:20 27.39886 89.42591 7615 ft 200 kts 150°
2026-05-09 01:20 27.38551 89.43420 8124 ft 234 kts 148°
2026-05-09 01:20 27.37073 89.44347 8868 ft 257 kts 149°
2026-05-09 01:21 27.35507 89.45380 9886 ft 269 kts 149°
2026-05-09 01:21 27.33901 89.46506 10996 ft 277 kts 142°
2026-05-09 01:21 27.32432 89.47887 12175 ft 280 kts 135°
2026-05-09 01:21 27.31079 89.49412 13225 ft 286 kts 133°
2026-05-09 01:22 27.29606 89.50966 14193 ft 294 kts 138°
2026-05-09 01:22 27.27994 89.52399 15162 ft 300 kts 143°
2026-05-09 01:22 27.26273 89.53687 16139 ft 304 kts 148°
2026-05-09 01:22 27.24414 89.54851 17081 ft 308 kts 150°
2026-05-09 01:23 27.22766 89.56197 17545 ft 280 kts 129°
2026-05-09 01:23 27.21880 89.58072 18056 ft 272 kts 101°
2026-05-09 01:23 27.21868 89.60164 18563 ft 273 kts 74°
2026-05-09 01:23 27.22704 89.62051 18979 ft 276 kts 48°
2026-05-09 01:24 27.24229 89.63367 19111 ft 276 kts 21°
2026-05-09 01:24 27.26069 89.63767 19105 ft 274 kts 354°
2026-05-09 01:24 27.27951 89.63371 19118 ft 273 kts 342°
2026-05-09 01:24 27.29752 89.62685 19126 ft 272 kts 337°
2026-05-09 01:25 27.31478 89.61824 19145 ft 271 kts 330°
2026-05-09 01:25 27.32878 89.60452 19141 ft 269 kts 298°
2026-05-09 01:25 27.33480 89.58469 19183 ft 267 kts 282°
2026-05-09 01:25 27.33862 89.56455 18990 ft 265 kts 282°
2026-05-09 01:26 27.34267 89.54455 18763 ft 257 kts 283°
2026-05-09 01:26 27.34676 89.52550 18643 ft 244 kts 284°
2026-05-09 01:26 27.35125 89.50693 18073 ft 252 kts 285°
2026-05-09 01:26 27.35556 89.48775 17583 ft 254 kts 283°
2026-05-09 01:27 27.35950 89.46862 17249 ft 250 kts 282°
2026-05-09 01:27 27.36282 89.44961 16900 ft 247 kts 279°
2026-05-09 01:27 27.36527 89.43062 16592 ft 242 kts 279°
2026-05-09 01:27 27.36825 89.41252 16324 ft 235 kts 282°
2026-05-09 01:28 27.37184 89.39481 16013 ft 232 kts 282°
2026-05-09 01:28 27.37446 89.37680 15670 ft 230 kts 277°
2026-05-09 01:28 27.37586 89.35925 15330 ft 228 kts 276°
2026-05-09 01:28 27.37742 89.34168 14847 ft 225 kts 274°
2026-05-09 01:29 27.37898 89.32425 14240 ft 222 kts 278°
2026-05-09 01:29 27.38171 89.30743 13593 ft 220 kts 283°
2026-05-09 01:29 27.38527 89.29092 12991 ft 216 kts 289°
2026-05-09 01:29 27.39083 89.27570 12410 ft 211 kts 297°
2026-05-09 01:30 27.39788 89.26144 11842 ft 206 kts 302°
2026-05-09 01:30 27.40593 89.24816 11517 ft 214 kts 310°
2026-05-09 01:30 27.41671 89.23637 11695 ft 218 kts 321°
2026-05-09 01:30 27.42850 89.22646 12291 ft 203 kts 328°
2026-05-09 01:31 27.43950 89.21903 12604 ft 169 kts 338°
2026-05-09 01:31 27.45052 89.21654 12288 ft 161 kts 12°
2026-05-09 01:31 27.46120 89.22086 11957 ft 171 kts 30°
2026-05-09 01:31 27.47129 89.22828 12254 ft 175 kts 40°
2026-05-09 01:32 27.48021 89.23761 12782 ft 177 kts 46°
2026-05-09 01:32 27.48849 89.24766 13484 ft 173 kts 52°
2026-05-09 01:32 27.49505 89.25876 14078 ft 171 kts 64°
2026-05-09 01:32 27.49904 89.26977 14167 ft 145 kts 73°
2026-05-09 01:33 27.50152 89.28146 13426 ft 167 kts 85°
2026-05-09 01:33 27.50105 89.29488 12715 ft 179 kts 98°
2026-05-09 01:33 27.49843 89.30850 12108 ft 184 kts 107°
2026-05-09 01:33 27.49305 89.32172 11426 ft 191 kts 119°
2026-05-09 01:34 27.48480 89.33328 10770 ft 194 kts 142°
2026-05-09 01:34 27.47353 89.34165 10084 ft 197 kts 141°
2026-05-09 01:34 27.46318 89.35160 9551 ft 190 kts 129°
2026-05-09 01:34 27.45641 89.36371 9165 ft 182 kts 115°
2026-05-09 01:35 27.45121 89.37638 8841 ft 174 kts 113°
2026-05-09 01:35 27.44565 89.38841 8698 ft 166 kts 123°
2026-05-09 01:35 27.43915 89.39864 8455 ft 153 kts 127°
2026-05-09 01:35 27.43265 89.40861 8302 ft 154 kts 135°
2026-05-09 01:36 27.42244 89.41417 8001 ft 175 kts 160°
2026-05-09 01:36 27.41122 89.41974 7449 ft 176 kts 150°
2026-05-09 01:36 27.40151 89.42586 7397 ft 133 kts 149°
2026-05-09 01:36 27.39581 89.42950 7382 ft 36 kts 150°
2026-05-09 01:37 27.39535 89.42979 7383 ft 5 kts 150°
2026-05-09 01:37 27.39500 89.43001 7385 ft 6 kts 151°
2026-05-09 01:37 27.39460 89.43017 7386 ft 6 kts 181°
2026-05-09 01:37 27.39426 89.42980 7386 ft 8 kts 259°
2026-05-09 01:38 27.39447 89.42924 7386 ft 8 kts 327°
2026-05-09 01:38 27.39496 89.42896 7386 ft 8 kts 334°
2026-05-09 01:38 27.39577 89.42846 7388 ft 15 kts 328°
2026-05-09 01:38 27.39658 89.42789 7390 ft 12 kts 329°
2026-05-09 01:39 27.39728 89.42744 7392 ft 10 kts 331°
2026-05-09 01:39 27.39788 89.42708 7394 ft 8 kts 332°
2026-05-09 01:39 27.39844 89.42673 7395 ft 15 kts 330°
2026-05-09 01:39 27.40037 89.42548 7400 ft 33 kts 330°
2026-05-09 01:40 27.40221 89.42432 7407 ft 27 kts 330°
2026-05-09 01:40 27.40372 89.42336 7415 ft 22 kts 331°
2026-05-09 01:40 27.40494 89.42257 7422 ft 17 kts 330°
2026-05-09 01:40 27.40576 89.42197 7423 ft 10 kts 292°
2026-05-09 01:41 27.40563 89.42145 7423 ft 6 kts 243°
2026-05-09 01:41 27.40562 89.42142 7423 ft 0 kts 242°